Flag for Germany Weather past 2 weeks in Backnang, Baden-Württemberg, Germany

Now
56 °F

Overcast.


Feels Like: 57 °F
Forecast: 56 / 72 °F
Wind: 3 mph from Northeast

Location: Oehringen

Current Time: Sep 3, 2014 at 10:05:05 AM

Latest Report: Sep 3, 2014 at 9:00 AM


Visibility: 8 mi

Pressure: 30.16 "Hg

Humidity: 84%

Dew point: 52 °F

Location of BacknangLocation

Historic Weather in Backnang — Graph

°F

Backnang temperature yesterday

Maximum temperature yesterday: 63 °F (at 3:00 PM)
Minimum temperature yesterday: 53 °F (at 4:00 AM)
Average temperature yesterday: 58 °F

Past Weeks' High & Low Weather Summary

 TemperatureHumidityPressure
High75 °F (Aug 28, 5:00 PM)98% (Aug 31, 11:00 AM)30.18 "Hg (Aug 31, 11:00 AM)
Low48 °F (Aug 20, 7:00 AM)34% (Aug 22, 6:00 PM)29.67 "Hg (Aug 26, 8:00 AM)
Average59 °F76%30.02 "Hg
* Reported Aug 19 9:00 AM — Sep 3 9:00 AM, Backnang, Weather by CustomWeather, © 2014

Note: Actual official high and low records may vary slightly from our data, if they occured in-between our weather recording intervals... More about our weather records

Advertising

Backnang weather history for previous 24 hours

 ConditionsComfort  
Time TempWeatherWind HumidityBarometerVisibility
9:00 AM
Sep 3
56 °FOvercast.3 mph84%30.16 "Hg8 mi
8:00 AM56 °FOvercast.5 mph87%30.16 "Hg7 mi
7:00 AM56 °FOvercast.3 mph88%30.15 "Hg6 mi
6:00 AM56 °FOvercast.3 mph88%30.14 "Hg6 mi
5:00 AM58 °FOvercast.5 mph89%30.14 "Hg7 mi
4:00 AM58 °FOvercast.2 mph92%30.15 "Hg6 mi
3:00 AM57 °FDrizzle. Overcast.1 mph94%30.16 "Hg4 mi
2:00 AM58 °FOvercast.No wind92%30.17 "Hg6 mi
1:00 AM57 °FOvercast.1 mph94%30.17 "Hg7 mi
12:00 AM57 °FOvercast.No wind93%30.18 "Hg8 mi
11:00 PM
Sep 2
57 °FOvercast.1 mph92%30.18 "Hg7 mi
10:00 PM57 °FOvercast.1 mph92%30.18 "Hg6 mi
9:00 PM58 °FOvercast.2 mph87%30.18 "Hg12 mi
8:00 PM60 °FPartly sunny.1 mph83%30.15 "Hg12 mi
7:00 PM62 °FOvercast.2 mph79%30.14 "Hg13 mi
6:00 PM63 °FOvercast.3 mph71%30.14 "Hg17 mi
5:00 PM63 °FOvercast.1 mph75%30.14 "Hg14 mi
4:00 PM62 °FDrizzle. Overcast.3 mph76%30.14 "Hg12 mi
3:00 PM63 °FOvercast.5 mph71%30.14 "Hg19 mi
2:00 PM63 °FDrizzle. Overcast.2 mph70%30.15 "Hg11 mi
1:00 PM63 °FOvercast.1 mph72%30.14 "Hg9 mi
12:00 PM61 °FOvercast.2 mph75%30.15 "Hg5 mi
11:00 AM59 °FOvercast.2 mph77%30.16 "Hg6 mi
10:00 AM59 °FLow clouds.2 mph83%30.15 "Hg6 mi
Weather by CustomWeather, © 2014

See weather overviewHow to use our weather pages